Location: Clyde
(45.1830°S, 169.3170°E)
Time: 06:26:54
(UTC+12:00)

ISS - Visible Passes

Search period start: 15 August 2020 00:00
Search period end: 25 August 2020 00:00
Orbit: 418 x 420 km, 51.6° (Epoch: 15 August)

Date Brightness Start Highest point End Pass type
(mag) Time Alt. Az. Time Alt. Az. Time Alt. Az.
18 Aug -1.3 19:17:28 10° NNE 19:17:53 11° NNE 19:17:53 11° NNE visible
19 Aug -1.9 20:04:09 10° NW 20:05:48 25° NNW 20:05:48 25° NNW visible
20 Aug -2.7 19:16:55 10° NNW 19:19:56 29° NE 19:20:37 27° ENE visible
20 Aug -0.4 20:53:15 10° W 20:53:36 12° W 20:53:36 12° W visible
21 Aug -2.0 18:29:59 10° N 18:32:27 19° NE 18:34:56 10° E visible
21 Aug -3.0 20:05:30 10° WNW 20:08:17 54° W 20:08:17 54° W visible
22 Aug -3.8 19:17:52 10° NW 19:21:17 74° NNE 19:22:52 29° ESE visible
22 Aug -0.5 20:55:10 10° W 20:55:51 14° WSW 20:55:51 14° WSW visible
23 Aug -3.2 18:30:23 10° NW 18:33:41 46° NE 18:37:00 10° ESE visible
23 Aug -2.6 20:07:16 10° W 20:10:20 39° SSW 20:10:20 39° SSW visible
24 Aug -3.1 19:19:25 10° W 19:22:47 52° SSW 19:24:45 22° SE visible
24 Aug -0.5 20:57:06 10° WSW 20:57:43 14° WSW 20:57:43 14° WSW visible
